| time (UTC) | temp C | wind direction | speed KPH | gust KPH | rain 1hr cm | rain 24hr cm | rain mn cm | humidity % | barometer mb |
| 20260504201554 | 23 | 221 | 1.6 | 12.9 | 0.00 | 0.00 | 0.00 | 43 | 1010.3 |
| 20260504200051 | 23 | 233 | 0.0 | 8.0 | 0.00 | 0.00 | 0.00 | 48 | 1010.4 |
| 20260504194549 | 22 | 352 | 4.8 | 11.3 | 0.00 | 0.00 | 0.00 | 43 | 1010.5 |
| 20260504193052 | 22 | 236 | 4.8 | 9.7 | 0.00 | 0.00 | 0.00 | 45 | 1010.3 |
| 20260504191557 | 22 | 284 | 3.2 | 12.9 | 0.00 | 0.00 | 0.00 | 46 | 1010.3 |
| 20260504190055 | 23 | 26 | 3.2 | 11.3 | 0.00 | 0.00 | 0.00 | 47 | 1010.4 |
| 20260504184559 | 22 | 266 | 3.2 | 14.5 | 0.00 | 0.00 | 0.00 | 45 | 1010.4 |
| 20260504183104 | 22 | 282 | 4.8 | 11.3 | 0.00 | 0.00 | 0.00 | 49 | 1010.6 |
| 20260504181603 | 21 | 250 | 3.2 | 9.7 | 0.00 | 0.00 | 0.00 | 49 | 1010.5 |
| 20260504180116 | 22 | 249 | 3.2 | 12.9 | 0.00 | 0.00 | 0.00 | 48 | 1010.4 |
| 20260504174600 | 21 | 271 | 4.8 | 11.3 | 0.00 | 0.00 | 0.00 | 49 | 1010.4 |
| 20260504173109 | 21 | 262 | 3.2 | 9.7 | 0.00 | 0.00 | 0.00 | 51 | 1010.4 |
| 20260504171615 | 21 | 227 | 3.2 | 8.0 | 0.00 | 0.00 | 0.00 | 51 | 1010.4 |
| 20260504170107 | 21 | 251 | 3.2 | 9.7 | 0.00 | 0.00 | 0.00 | 52 | 1010.5 |
| 20260504130106 | 8 | 0 | 0.0 | 0.0 | 0.00 | 0.00 | 0.00 | 91 | 1009.6 |
| 20260504081558 | 9 | 0 | 0.0 | 0.0 | 0.00 | 0.00 | 0.00 | 88 | 1009.4 |
| 20260504044554 | 12 | 290 | 0.0 | 3.2 | 0.00 | 0.00 | 0.00 | 82 | 1009.4 |
| 20260504043058 | 12 | 242 | 0.0 | 3.2 | 0.00 | 0.00 | 0.00 | 81 | 1009.4 |
| 20260504041602 | 12 | 0 | 0.0 | 0.0 | 0.00 | 0.00 | 0.00 | 80 | 1009.4 |
| 20260504040054 | 13 | 0 | 0.0 | 0.0 | 0.00 | 0.00 | 0.00 | 79 | 1009.4 |
| 20260504034606 | 13 | 0 | 0.0 | 3.2 | 0.00 | 0.00 | 0.00 | 77 | 1009.3 |
| 20260504033055 | 14 | 0 | 0.0 | 3.2 | 0.00 | 0.00 | 0.00 | 75 | 1009.4 |
| 20260504031555 | 15 | 235 | 0.0 | 3.2 | 0.00 | 0.00 | 0.00 | 74 | 1009.4 |
| 20260504030054 | 15 | 0 | 0.0 | 3.2 | 0.00 | 0.00 | 0.00 | 72 | 1009.5 |
| 20260504024555 | 16 | 0 | 0.0 | 3.2 | 0.00 | 0.00 | 0.00 | 70 | 1009.6 |
| 20260504023057 | 16 | 236 | 1.6 | 8.0 | 0.00 | 0.00 | 0.00 | 67 | 1009.7 |
| 20260504021556 | 17 | 169 | 1.6 | 4.8 | 0.00 | 0.00 | 0.00 | 66 | 1009.6 |
| 20260504020105 | 18 | 0 | 0.0 | 3.2 | 0.00 | 0.00 | 0.00 | 64 | 1009.7 |
| 20260504014558 | 19 | 183 | 0.0 | 3.2 | 0.00 | 0.00 | 0.00 | 61 | 1010.0 |
| 20260504013113 | 20 | 191 | 0.0 | 3.2 | 0.00 | 0.00 | 0.00 | 60 | 1010.1 |
| 20260504011553 | 21 | 181 | 1.6 | 3.2 | 0.00 | 0.00 | 0.00 | 56 | 1010.2 |
| 20260504010052 | 22 | 250 | 1.6 | 6.4 | 0.00 | 0.00 | 0.00 | 53 | 1010.3 |
| 20260504004551 | 21 | 239 | 1.6 | 8.0 | 0.00 | 0.00 | 0.00 | 56 | 1010.7 |
| 20260504003051 | 21 | 255 | 1.6 | 6.4 | 0.00 | 0.00 | 0.00 | 56 | 1010.8 |
| 20260504001554 | 20 | 214 | 1.6 | 4.8 | 0.00 | 0.00 | 0.00 | 59 | 1011.0 |
| 20260504000055 | 22 | 274 | 3.2 | 6.4 | 0.00 | 0.00 | 0.00 | 55 | 1011.1 |
| 20260503234553 | 23 | 231 | 3.2 | 9.7 | 0.00 | 0.00 | 0.00 | 51 | 1011.2 |
| 20260503233050 | 22 | 243 | 4.8 | 9.7 | 0.00 | 0.00 | 0.00 | 55 | 1011.3 |
| 20260503231552 | 23 | 267 | 4.8 | 11.3 | 0.00 | 0.00 | 0.00 | 49 | 1011.4 |
| 20260503230052 | 25 | 5 | 3.2 | 8.0 | 0.00 | 0.00 | 0.00 | 47 | 1011.5 |
| 20260503224600 | 24 | 323 | 3.2 | 9.7 | 0.00 | 0.00 | 0.00 | 45 | 1011.6 |
| 20260503223051 | 25 | 277 | 3.2 | 11.3 | 0.00 | 0.00 | 0.00 | 49 | 1012.1 |
| 20260503221600 | 25 | 212 | 1.6 | 8.0 | 0.00 | 0.00 | 0.00 | 50 | 1012.3 |
| 20260503220055 | 23 | 321 | 6.4 | 11.3 | 0.00 | 0.00 | 0.00 | 49 | 1012.5 |
| 20260503214550 | 22 | 248 | 4.8 | 12.9 | 0.00 | 0.00 | 0.00 | 51 | 1012.5 |
| 20260503213052 | 22 | 236 | 4.8 | 11.3 | 0.00 | 0.00 | 0.00 | 52 | 1012.6 |
| 20260503211552 | 22 | 234 | 3.2 | 9.7 | 0.00 | 0.00 | 0.00 | 53 | 1012.7 |
| 20260503210052 | 22 | 208 | 4.8 | 8.0 | 0.00 | 0.00 | 0.00 | 59 | 1012.9 |
| 20260503204613 | 22 | 257 | 3.2 | 11.3 | 0.00 | 0.00 | 0.00 | 53 | 1013.1 |
| 20260503203057 | 22 | 276 | 1.6 | 8.0 | 0.00 | 0.00 | 0.00 | 51 | 1013.3 |